CDT,Max TemperatureF,Mean TemperatureF,Min TemperatureF,Max Dew PointF,MeanDew PointF,Min DewpointF,Max Humidity, Mean Humidity, Min Humidity, Max Sea Level PressureIn, Mean Sea Level PressureIn, Min Sea Level PressureIn, Max VisibilityMiles, Mean VisibilityMiles, Min VisibilityMiles, Max Wind SpeedMPH, Mean Wind SpeedMPH, Max Gust SpeedMPH,PrecipitationIn, CloudCover, Events, WindDirDegrees
2013-9-1,91,82,73,70,67,64,88,68,43,29.94,29.89,29.84,10,10,10,17,6,21,0.01,1,Thunderstorm,139
2013-9-2,84,76,68,70,63,59,88,68,45,30.03,29.98,29.93,10,10,9,10,4,16,0.00,1,,23
2013-9-3,84,72,60,63,58,54,88,60,35,30.10,30.05,30.01,10,10,3,9,3,,0.00,0,,51
2013-9-4,87,74,60,63,59,55,88,61,35,30.19,30.12,30.07,10,10,8,9,2,,0.00,0,,87
2013-9-5,87,74,62,63,59,55,83,61,35,30.22,30.17,30.13,10,10,10,8,3,,0.00,0,,104
2013-9-6,89,76,62,63,60,57,82,61,36,30.18,30.11,30.05,10,10,10,8,4,,0.00,0,,117
2013-9-7,93,80,66,66,63,59,88,61,34,30.09,30.03,29.98,10,10,8,9,4,,0.00,0,,161
2013-9-8,93,80,68,66,64,61,78,57,38,30.02,29.98,29.93,10,10,10,13,3,16,0.00,0,,217
2013-9-9,95,82,68,64,63,59,83,56,32,30.06,30.00,29.97,10,10,10,10,4,16,0.00,0,,191
2013-9-10,93,80,66,66,61,55,78,56,28,30.17,30.11,30.03,10,10,10,12,4,16,0.00,0,,191
2013-9-11,91,80,68,66,64,63,83,61,38,30.20,30.14,30.08,10,10,9,8,2,,0.00,0,,190
2013-9-12,89,79,69,68,65,63,83,65,43,30.14,30.09,30.03,10,10,5,14,4,18,0.00,0,,5
2013-9-13,80,72,62,64,53,48,73,52,32,30.11,30.06,30.02,10,10,5,14,8,18,0.00,1,,55
2013-9-14,80,68,57,54,49,45,77,54,28,30.10,30.04,30.00,10,10,5,13,5,18,0.00,0,,116
2013-9-15,87,72,57,63,55,48,72,55,37,30.08,30.04,30.01,10,10,10,10,6,16,0.00,0,,174
2013-9-16,77,73,69,66,63,59,88,74,64,30.22,30.15,30.07,10,10,6,9,4,,0.00,3,Thunderstorm,65
2013-9-17,84,75,66,66,63,61,88,70,48,30.16,30.11,30.04,10,10,9,13,7,,0.00,0,,119
2013-9-18,89,79,69,66,64,61,78,63,43,30.06,30.01,29.96,10,10,5,15,6,20,0.00,0,,164
2013-9-19,89,79,69,68,65,61,83,64,43,30.03,29.97,29.90,10,10,4,18,7,23,0.25,1,,175
2013-9-20,71,65,57,66,61,52,94,83,60,30.01,29.98,29.95,10,8,3,16,5,21,1.57,4,Thunderstorm,351
2013-9-21,73,62,50,54,49,46,88,65,38,30.04,29.98,29.94,10,10,5,13,4,18,0.00,0,,21
2013-9-22,77,62,48,50,47,45,93,59,34,30.01,29.94,29.89,10,9,0,12,3,,0.00,0,,115
2013-9-23,78,66,53,54,50,46,82,62,36,29.95,29.90,29.83,10,9,2,14,6,17,0.00,0,,141
2013-9-24,77,67,57,55,54,52,82,64,47,29.90,29.88,29.86,10,10,10,16,7,21,0.00,1,,245
2013-9-25,78,66,53,57,56,52,94,69,44,29.91,29.87,29.85,10,10,4,9,2,,0.00,0,,7
2013-9-26,86,72,59,61,57,54,82,62,37,29.98,29.93,29.87,10,10,10,14,7,91,0.02,0,,136
2013-9-27,84,73,62,63,58,55,82,62,40,30.04,29.98,29.94,10,10,10,14,8,18,0.00,0,,142
2013-9-28,80,71,60,64,61,57,94,74,57,30.07,29.98,29.93,10,9,3,21,8,26,1.30,5,Thunderstorm,171
2013-9-29,75,65,55,57,54,52,88,70,44,30.07,30.02,29.95,10,10,5,10,6,,0.01,2,,40
2013-9-30,80,68,57,64,60,55,94,74,48,29.95,29.92,29.87,10,9,0,10,4,,0.00,3,,158